This demonstration page uses our WeatherBlox Daily Observations layout. Learn more.

Left ArrowRight Arrow

44.8408, -93.29828

Hourly Observations for March 17, 2015

Temp ( °F °C ) Dew Point ( °F °C ) Humidity (%) Winds ( mph kmh ) Pressure ( in mb ) Visibility ( mi km ) Precip ( " mm )
12:53 am 00:53 Cloudy 36 2.2 15 -9.4 42 42 N 17 28 30.35 1028 10 16 0.00 0.00
1:53 am 01:53 Cloudy 35 1.7 10 -12.2 35 35 N 18 30 30.38 1029 10 16 0.00 0.00
2:53 am 02:53 Cloudy 33 0.6 12 -11.1 42 42 N 13 20 30.42 1030 10 16 0.00 0.00
3:53 am 03:53 Cloudy 32 0 10 -12.2 40 40 NNW 9 15 30.43 1030 10 16 0.00 0.00
4:53 am 04:53 Mostly Clear 30 -1.1 10 -12.2 43 43 NNW 10 17 30.45 1031 10 16 0.00 0.00
5:53 am 05:53 Mostly Clear 29 -1.7 9 -12.8 43 43 N 10 17 30.46 1032 9 14 0.00 0.00
6:53 am 06:53 Clear 27 -2.8 10 -12.2 49 49 NW 6 9 30.48 1032 10 16 0.00 0.00
7:53 am 07:53 Sunny 27 -2.8 10 -12.2 49 49 NW 7 11 30.51 1033 10 16 0.00 0.00
8:53 am 08:53 Mostly Sunny 31 -0.6 9 -12.8 40 40 NW 9 15 30.52 1034 10 16 0.00 0.00
9:53 am 09:53 Mostly Sunny 34 1.1 8 -13.3 34 34 NW 7 11 30.54 1034 10 16 0.00 0.00
10:53 am 10:53 Mostly Sunny 37 2.8 7 -13.9 28 28 NW 13 20 30.53 1034 10 16 0.00 0.00
11:53 am 11:53 Mostly Sunny 40 4.4 11 -11.7 30 30 NNW 14 22 30.52 1034 10 16 0.00 0.00
12:53 pm 12:53 Mostly Sunny 42 5.6 10 -12.2 27 27 N 16 26 30.50 1033 10 16 0.00 0.00
1:53 pm 13:53 Mostly Sunny 43 6.1 8 -13.3 24 24 NW 12 19 30.48 1032 10 16 0.00 0.00
2:53 pm 14:53 Mostly Sunny 44 6.7 6 -14.4 21 21 NW 15 24 30.45 1031 10 16 0.00 0.00
3:53 pm 15:53 Mostly Sunny 45 7.2 6 -14.4 20 20 WNW 10 17 30.43 1031 10 16 0.00 0.00
4:53 pm 16:53 Partly Cloudy 44 6.7 7 -13.9 22 22 W 8 13 30.42 1030 10 16 0.00 0.00
5:53 pm 17:53 Partly Cloudy 43 6.1 7 -13.9 22 22 NW 16 26 30.41 1030 10 16 0.00 0.00
6:53 pm 18:53 Mostly Cloudy 41 5 8 -13.3 25 25 NW 12 19 30.40 1030 10 16 0.00 0.00
7:53 pm 19:53 Mostly Cloudy 38 3.3 9 -12.8 30 30 WNW 6 9 30.39 1029 10 16 0.00 0.00
8:53 pm 20:53 Mostly Cloudy 38 3.3 9 -12.8 30 30 W 5 7 30.39 1029 10 16 0.00 0.00
9:53 pm 21:53 Mostly Cloudy 36 2.2 11 -11.7 35 35 W 6 9 30.38 1029 10 16 0.00 0.00
10:53 pm 22:53 Mostly Cloudy 36 2.2 13 -10.6 39 39 W 6 9 30.37 1028 10 16 0.00 0.00
11:53 pm 23:53 Cloudy 34 1.1 15 -9.4 46 46 W 5 7 30.37 1028 10 16 0.00 0.00

Powered by AerisWeather